+ View the NASA Portal
+ Center for Near-Earth Object Studies
IMPORTANT:
The SSD Announcement email list is now available. Major changes are coming in the near future, including possible hostname and/or URL changes. To be notified of such changes, subscribe to this email list.
Please visit
this page
for more details.
Don't show this message again
JPL Small-Body Database Browser
Search:
[
help
]
109292 (2001 QB124)
Classification:
Main-belt Asteroid
SPK-ID:
2109292
[
Ephemeris
|
Orbit Diagram
|
Orbital Elements
|
Mission Design
|
Physical Parameters
|
Discovery Circumstances
|
Close-Approach Data
]
[ show orbit diagram ]
Orbital Elements at Epoch 2458600.5 (2019-Apr-27.0) TDB
Reference:
JPL 14
(heliocentric ecliptic J2000)
Element
Value
Uncertainty (1-sigma)
Units
e
.1860838857674742
3.9405e-08
a
2.367907325884397
1.2101e-08
au
q
1.92727792954656
9.1495e-08
au
i
3.135088044813378
4.529e-06
deg
node
60.63745510946153
8.4192e-05
deg
peri
192.9178254688039
8.5389e-05
deg
M
5.20378822534397
1.2855e-05
deg
t
p
2458581.261881658397
(2019-Apr-07.76188166)
4.7538e-05
TDB
period
1330.900164085581
3.64
1.0202e-05
2.793e-08
d
yr
n
.2704936175639774
2.0735e-09
deg/d
Q
2.808536722222235
1.4353e-08
au
Orbit Determination Parameters
# obs. used (total)
569
data-arc span
7174 days (19.64 yr)
first obs. used
2000-03-04
last obs. used
2019-10-25
planetary ephem.
DE431
SB-pert. ephem.
SB431-N16
condition code
0
norm. resid. RMS
.52921
source
ORB
producer
Otto Matic
solution date
2019-Nov-07 12:51:06
Additional Information
Earth MOID
= .912628 au
Jupiter MOID
= 2.23674 au
T_jup
= 3.521
[ show covariance matrix ]
[
Ephemeris
|
Orbit Diagram
|
Orbital Elements
|
Mission Design
|
Physical Parameters
|
Discovery Circumstances
|
Close-Approach Data
]
Physical Parameter Table
Parameter
Symbol
Value
Units
Sigma
Reference
Notes
absolute magnitude
H
16.1
n/a
MPO436525
109292 (2001 QB124)
Discovered 2001-Aug-19 by LINEAR at Socorro
Reference:
20051019/Numbers.arc
Last Updated:
2005-10-26
[ show close-approach data ]
[
Ephemeris
|
Orbit Diagram
|
Orbital Elements
|
Mission Design
|
Physical Parameters
|
Discovery Circumstances
|
Close-Approach Data
]
2019-Dec-13 21:44 UT
(server date/time)
Site Manager:
Ryan S. Park
Webmaster
:
Alan B. Chamberlin